Weather History for North Wilkesboro, NC

Change the Weather History Date:

Monday, October 14, 2013

  Actual Average Record
Temperature  
Mean Temperature 62 °F -  
Max Temperature 68 °F 72 °F 86 °F (1962)
Min Temperature 57 °F 42 °F 26 °F (1988)
Degree Days  
Heating Degree Days 2    
Growing Degree Days 12 (Base 50)    
Moisture  
Dew Point 57 °F    
Average Humidity 87    
Maximum Humidity 100    
Minimum Humidity 64    
Precipitation  
Precipitation 0.02 in - - ()
Sea Level Pressure  
Sea Level Pressure 30.30 in    
Wind  
Wind Speed 3 mph (ENE)    
Max Wind Speed 7 mph    
Max Gust Speed -    
Visibility 10 miles    
Events      
Averages and records for this station are not official NWS values.
T = Trace of Precipitation, MM = Missing Value Source: NWS Daily Summary

Daily Weather History Graph

Daily Weather History Graph

Search for Another Location

Airport:

Trip Planner

Search our weather history database for the weather conditions in past years. The results will help you decide how hot, cold, wet, or windy it might be!

Date:

Astronomy

Oct. 14, 2013 Rise Set
Actual Time 7:30 AM EDT 6:49 PM EDT
Civil Twilight 7:04 AM EDT 7:15 PM EDT
Nautical Twilight 6:34 AM EDT 7:45 PM EDT
Astronomical Twilight 6:05 AM EDT 8:14 PM EDT
Moon 4:11 PM EDT (10/14) 2:53 AM EDT (10/14)
Length of Visible Light 12h 10m
Length of Day
11h 18m
Waxing Gibbous, 79% of the Moon is Illuminated
Oct 14
Waxing Gibbous
Oct 18
Full
Oct 26
Last Quarter
Nov 3
New
Nov 10
First Quarter

Hourly Weather History & Observations

Time (EDT) Temp. Dew Point Humidity Pressure Visibility Wind Dir Wind Speed Gust Speed Precip Events Conditions
12:15 AM 60.8 °F 59.0 °F 94% 30.31 in 10.0 mi East 3.5 mph - N/A   Overcast
12:35 AM 60.8 °F 59.0 °F 94% 30.31 in 10.0 mi Calm Calm - N/A   Overcast
12:55 AM 60.8 °F 59.0 °F 94% 30.30 in 10.0 mi Calm Calm - N/A   Overcast
1:15 AM 60.8 °F 59.0 °F 94% 30.30 in 10.0 mi Calm Calm - N/A   Overcast
1:35 AM 60.8 °F 59.0 °F 94% 30.30 in 10.0 mi Calm Calm - N/A   Overcast
1:55 AM 60.8 °F 59.0 °F 94% 30.30 in 10.0 mi NNE 5.8 mph - N/A   Overcast
2:15 AM 60.8 °F 59.0 °F 94% 30.30 in 10.0 mi NE 5.8 mph - N/A   Overcast
2:35 AM 60.8 °F 59.0 °F 94% 30.30 in 10.0 mi NE 4.6 mph - N/A   Overcast
2:55 AM 60.8 °F 59.0 °F 94% 30.30 in 10.0 mi NE 4.6 mph - N/A   Overcast
3:15 AM 60.8 °F 59.0 °F 94% 30.30 in 10.0 mi Calm Calm - N/A   Overcast
3:35 AM 60.8 °F 59.0 °F 94% 30.30 in 10.0 mi East 3.5 mph - N/A   Overcast
3:55 AM 60.8 °F 57.2 °F 88% 30.30 in 10.0 mi East 4.6 mph - N/A   Overcast
4:15 AM 60.8 °F 57.2 °F 88% 30.30 in 10.0 mi East 4.6 mph - N/A   Overcast
4:35 AM 59.0 °F 57.2 °F 94% 30.30 in 10.0 mi ENE 5.8 mph - N/A   Overcast
4:55 AM 59.0 °F 57.2 °F 94% 30.30 in 10.0 mi ENE 5.8 mph - N/A   Overcast
5:15 AM 59.0 °F 59.0 °F 100% 30.30 in 7.0 mi ENE 3.5 mph - N/A   Overcast
5:35 AM 59.0 °F 59.0 °F 100% 30.30 in 7.0 mi Calm Calm - N/A   Drizzle
5:55 AM 59.0 °F 59.0 °F 100% 30.30 in 3.0 mi Calm Calm - N/A   Heavy Drizzle
6:15 AM 59.0 °F 59.0 °F 100% 30.30 in 3.0 mi Calm Calm - 0.01 in   Heavy Drizzle
6:35 AM 59.0 °F 59.0 °F 100% 30.30 in 5.0 mi Calm Calm - 0.01 in   Light Drizzle
6:55 AM 59.0 °F 59.0 °F 100% 30.31 in 10.0 mi Calm Calm - 0.01 in   Overcast
7:15 AM 59.0 °F 59.0 °F 100% 30.31 in 10.0 mi Calm Calm - N/A   Overcast
7:35 AM 59.0 °F 59.0 °F 100% 30.31 in 10.0 mi Calm Calm - 0.01 in   Overcast
7:55 AM 59.0 °F 59.0 °F 100% 30.31 in 10.0 mi Calm Calm - 0.01 in   Overcast
8:15 AM 59.0 °F 59.0 °F 100% 30.32 in 10.0 mi Calm Calm - N/A   Overcast
8:35 AM 59.0 °F 59.0 °F 100% 30.32 in 10.0 mi Calm Calm - N/A   Overcast
8:55 AM 59.0 °F 59.0 °F 100% 30.32 in 10.0 mi Calm Calm - N/A   Overcast
9:15 AM 59.0 °F 59.0 °F 100% 30.32 in 10.0 mi Calm Calm - N/A   Overcast
9:35 AM 60.8 °F 59.0 °F 94% 30.33 in 10.0 mi Calm Calm - N/A   Overcast
9:55 AM 60.8 °F 59.0 °F 94% 30.33 in 10.0 mi Calm Calm - N/A   Overcast
10:15 AM 60.8 °F 59.0 °F 94% 30.34 in 10.0 mi Calm Calm - N/A   Overcast
10:35 AM 60.8 °F 59.0 °F 94% 30.34 in 10.0 mi Calm Calm - N/A   Overcast
10:55 AM 62.6 °F 59.0 °F 88% 30.34 in 10.0 mi ENE 3.5 mph - N/A   Overcast
11:15 AM 60.8 °F 59.0 °F 94% 30.34 in 10.0 mi Calm Calm - N/A   Overcast
11:35 AM 60.8 °F 59.0 °F 94% 30.34 in 10.0 mi ENE 3.5 mph - N/A   Overcast
11:55 AM 62.6 °F 59.0 °F 88% 30.34 in 10.0 mi NE 5.8 mph - N/A   Overcast
12:15 PM 62.6 °F 59.0 °F 88% 30.33 in 10.0 mi NNE 6.9 mph - N/A   Overcast
12:35 PM 62.6 °F 59.0 °F 88% 30.32 in 10.0 mi North 5.8 mph - N/A   Overcast
12:55 PM 62.6 °F 59.0 °F 88% 30.32 in 10.0 mi Calm Calm - N/A   Overcast
1:15 PM 62.6 °F 57.2 °F 82% 30.31 in 10.0 mi ENE 3.5 mph - N/A   Overcast
1:35 PM 62.6 °F 57.2 °F 82% 30.30 in 10.0 mi NNE 6.9 mph - N/A   Overcast
1:55 PM 64.4 °F 57.2 °F 77% 30.30 in 10.0 mi ENE 4.6 mph - N/A   Overcast
2:15 PM 64.4 °F 57.2 °F 77% 30.29 in 10.0 mi ENE 5.8 mph - N/A   Overcast
2:35 PM 64.4 °F 57.2 °F 77% 30.28 in 10.0 mi NE 5.8 mph - N/A   Overcast
2:55 PM 66.2 °F 55.4 °F 68% 30.28 in 10.0 mi NNE 5.8 mph - N/A   Overcast
3:15 PM 68.0 °F 55.4 °F 64% 30.27 in 10.0 mi ENE 5.8 mph - N/A   Overcast
3:35 PM 68.0 °F 55.4 °F 64% 30.26 in 10.0 mi East 5.8 mph - N/A   Overcast
3:55 PM 68.0 °F 55.4 °F 64% 30.25 in 10.0 mi East 3.5 mph - N/A   Mostly Cloudy
4:15 PM 68.0 °F 55.4 °F 64% 30.25 in 10.0 mi ENE 3.5 mph - N/A   Mostly Cloudy
4:35 PM 68.0 °F 55.4 °F 64% 30.25 in 10.0 mi ENE 6.9 mph - N/A   Mostly Cloudy
4:55 PM 68.0 °F 55.4 °F 64% 30.24 in 10.0 mi ENE 5.8 mph - N/A   Scattered Clouds
5:15 PM 68.0 °F 55.4 °F 64% 30.24 in 10.0 mi East 5.8 mph - N/A   Scattered Clouds
5:35 PM 68.0 °F 55.4 °F 64% 30.24 in 10.0 mi ENE 6.9 mph - N/A   Clear
5:55 PM 68.0 °F 55.4 °F 64% 30.24 in 10.0 mi East 4.6 mph - N/A   Clear
6:15 PM 66.2 °F 55.4 °F 68% 30.25 in 10.0 mi ENE 3.5 mph - N/A   Clear
6:35 PM 64.4 °F 55.4 °F 73% 30.25 in 10.0 mi East 3.5 mph - N/A   Clear
6:55 PM 62.6 °F 55.4 °F 77% 30.26 in 10.0 mi Calm Calm - N/A   Clear
7:15 PM 62.6 °F 55.4 °F 77% 30.26 in 10.0 mi Calm Calm - N/A   Clear
7:35 PM 62.6 °F 55.4 °F 77% 30.27 in 10.0 mi East 4.6 mph - N/A   Mostly Cloudy
7:55 PM 60.8 °F 55.4 °F 82% 30.27 in 10.0 mi East 3.5 mph - N/A   Mostly Cloudy
8:15 PM 60.8 °F 55.4 °F 82% 30.28 in 10.0 mi Calm Calm - N/A   Clear
8:35 PM 59.0 °F 55.4 °F 88% 30.28 in 10.0 mi East 3.5 mph - N/A   Clear
8:55 PM 59.0 °F 55.4 °F 88% 30.29 in 10.0 mi Calm Calm - N/A   Clear
9:15 PM 59.0 °F 55.4 °F 88% 30.29 in 10.0 mi Calm Calm - N/A   Mostly Cloudy
9:35 PM 59.0 °F 55.4 °F 88% 30.30 in 10.0 mi ENE 3.5 mph - N/A   Overcast
9:55 PM 59.0 °F 55.4 °F 88% 30.30 in 10.0 mi ENE 4.6 mph - N/A   Overcast
10:15 PM 59.0 °F 55.4 °F 88% 30.31 in 10.0 mi East 3.5 mph - N/A   Overcast
10:35 PM 59.0 °F 55.4 °F 88% 30.32 in 10.0 mi East 3.5 mph - N/A   Overcast
10:55 PM 59.0 °F 55.4 °F 88% 30.31 in 10.0 mi East 3.5 mph - N/A   Overcast
11:15 PM 57.2 °F 55.4 °F 94% 30.31 in 10.0 mi Calm Calm - N/A   Overcast
11:35 PM 57.2 °F 55.4 °F 94% 30.31 in 10.0 mi Calm Calm - N/A   Overcast
11:55 PM 57.2 °F 55.4 °F 94% 30.30 in 10.0 mi East 3.5 mph - N/A   Overcast